Weather History for Socorro, NM

Change the Weather History Date:

Friday, April 19, 2013

  Actual Average Record
Temperature  
Mean Temperature 49 °F -  
Max Temperature 67 °F 75 °F 86 °F (2011)
Min Temperature 31 °F 39 °F 31 °F (2013)
Degree Days  
Heating Degree Days 16    
Moisture  
Dew Point -1 °F    
Average Humidity 14    
Maximum Humidity 27    
Minimum Humidity 6    
Precipitation  
Precipitation 0.00 in - - ()
Sea Level Pressure  
Sea Level Pressure 30.18 in    
Wind  
Wind Speed 8 mph (ENE)    
Max Wind Speed 18 mph    
Max Gust Speed 36 mph    
Visibility 10 miles    
Events      
Averages and records for this station are not official NWS values.
T = Trace of Precipitation, MM = Missing Value Source: NWS Daily Summary

Daily Weather History Graph

Daily Weather History Graph

Search for Another Location

Airport:

Trip Planner

Search our weather history database for the weather conditions in past years. The results will help you decide how hot, cold, wet, or windy it might be!

Date:

Astronomy

Apr. 19, 2013 Rise Set
Actual Time 6:31 AM MDT 7:42 PM MDT
Civil Twilight 6:05 AM MDT 8:08 PM MDT
Nautical Twilight 5:34 AM MDT 8:39 PM MDT
Astronomical Twilight 5:02 AM MDT 9:11 PM MDT
Moon 1:45 PM MDT (4/19) 2:31 AM MDT (4/19)
Length of Visible Light 14h 02m
Length of Day
13h 10m
Waxing Gibbous, 62% of the Moon is Illuminated
Apr 19
Waxing Gibbous
Apr 25
Full
May 2
Last Quarter
May 9
New
May 17
First Quarter

Hourly Weather History & Observations

Time (MDT) Temp. Windchill Dew Point Humidity Pressure Visibility Wind Dir Wind Speed Gust Speed Precip Events Conditions
12:15 AM 38.5 °F 35.0 °F -2.4 °F 18% 30.26 in 10.0 mi NE 4.6 mph - N/A   Clear
12:35 AM 38.1 °F 33.7 °F -2.4 °F 18% 30.26 in 10.0 mi NNW 5.8 mph - N/A   Clear
12:55 AM 36.9 °F 31.4 °F -3.1 °F 18% 30.26 in 10.0 mi North 6.9 mph - N/A   Clear
1:15 AM 36.3 °F 31.6 °F -2.9 °F 19% 30.26 in 10.0 mi North 5.8 mph - N/A   Clear
1:35 AM 38.3 °F 34.8 °F -1.5 °F 19% 30.26 in 10.0 mi NNE 4.6 mph - N/A   Clear
1:55 AM 39.4 °F 33.8 °F -0.6 °F 19% 30.25 in 10.0 mi North 8.1 mph 16.1 mph N/A   Clear
2:15 AM 36.1 °F 31.4 °F -0.9 °F 21% 30.26 in 10.0 mi NNE 5.8 mph - N/A   Clear
2:35 AM 36.1 °F 29.9 °F -1.3 °F 20% 30.26 in 10.0 mi NNE 8.1 mph - N/A   Clear
2:55 AM 35.8 °F 28.3 °F -0.9 °F 21% 30.26 in 10.0 mi North 10.4 mph - N/A   Clear
3:15 AM 36.5 °F 29.7 °F -0.6 °F 21% 30.26 in 10.0 mi NNW 9.2 mph - N/A   Clear
3:35 AM 36.1 °F 27.7 °F -0.6 °F 21% 30.26 in 10.0 mi NNW 12.7 mph - N/A   Clear
3:55 AM 38.1 °F 29.5 °F 0.5 °F 21% 30.25 in 10.0 mi NNW 15.0 mph 23.0 mph N/A   Clear
4:15 AM 37.8 °F 29.0 °F 0.5 °F 21% 30.26 in 10.0 mi NNW 15.0 mph 18.4 mph N/A   Clear
4:55 AM 35.8 °F 28.8 °F 0.5 °F 23% 30.26 in 10.0 mi North 9.2 mph - N/A   Clear
5:15 AM 34.7 °F 26.4 °F 0.5 °F 24% 30.26 in 10.0 mi North 11.5 mph 16.1 mph N/A   Clear
5:35 AM 35.8 °F 27.3 °F 0.5 °F 23% 30.26 in 10.0 mi North 12.7 mph - N/A   Clear
5:55 AM 36.7 °F 31.2 °F 0.1 °F 21% 30.27 in 10.0 mi NE 6.9 mph - N/A   Clear
6:15 AM 32.4 °F 26.9 °F 1.8 °F 27% 30.27 in 10.0 mi NNE 5.8 mph - N/A   Clear
6:35 AM 31.8 °F 26.2 °F 1.4 °F 27% 30.28 in 10.0 mi NNE 5.8 mph - N/A   Clear
6:55 AM 32.0 °F 26.4 °F 1.0 °F 27% 30.28 in 10.0 mi NW 5.8 mph - N/A   Clear
7:15 AM 33.6 °F 26.8 °F 1.4 °F 26% 30.28 in 10.0 mi North 8.1 mph - N/A   Clear
7:35 AM 35.6 °F 27.5 °F 1.9 °F 24% 30.28 in 10.0 mi North 11.5 mph - N/A   Clear
7:55 AM 37.6 °F 29.6 °F 1.6 °F 22% 30.28 in 10.0 mi NNE 12.7 mph - N/A   Clear
8:15 AM 39.4 °F 31.8 °F 1.8 °F 21% 30.30 in 10.0 mi NNE 12.7 mph 17.3 mph N/A   Clear
8:55 AM 43.3 °F 36.8 °F 1.8 °F 18% 30.30 in 10.0 mi NNE 12.7 mph - N/A   Clear
9:15 AM 45.1 °F 39.9 °F 1.8 °F 17% 30.30 in 10.0 mi NNE 10.4 mph - N/A   Clear
9:35 AM 46.6 °F - 1.8 °F 16% 30.30 in 10.0 mi North 5.8 mph - N/A   Clear
9:55 AM 48.2 °F - 0.9 °F 14% 30.30 in 10.0 mi NNE 8.1 mph - N/A   Clear
10:15 AM 49.1 °F - 1.2 °F 14% 30.30 in 10.0 mi ENE 9.2 mph - N/A   Clear
10:35 AM 50.0 °F - 1.6 °F 14% 30.29 in 10.0 mi NNE 9.2 mph - N/A   Clear
10:55 AM 50.2 °F - 1.8 °F 14% 30.29 in 10.0 mi North 8.1 mph - N/A   Clear
11:15 AM 52.5 °F - 2.3 °F 13% 30.28 in 10.0 mi NNE 4.6 mph - N/A   Clear
11:35 AM 53.6 °F - 2.5 °F 13% 30.28 in 10.0 mi NNW 4.6 mph - N/A   Clear
11:55 AM 55.2 °F - 2.7 °F 12% 30.26 in 10.0 mi ENE 6.9 mph - N/A   Clear
12:15 PM 54.3 °F - 2.5 °F 12% 30.25 in 10.0 mi NE 3.5 mph - N/A   Clear
12:35 PM 56.1 °F - 2.8 °F 12% 30.24 in 10.0 mi SW 6.9 mph - N/A   Clear
12:55 PM 56.3 °F - 2.5 °F 11% 30.22 in 10.0 mi ENE 3.5 mph - N/A   Clear
1:15 PM 57.9 °F - 3.0 °F 11% 30.21 in 10.0 mi SE 9.2 mph - N/A   Clear
1:35 PM 57.7 °F - 2.3 °F 11% 30.20 in 10.0 mi WSW 6.9 mph - N/A   Clear
1:55 PM 60.3 °F - 3.0 °F 10% 30.19 in 10.0 mi East 5.8 mph - N/A   Clear
2:15 PM 60.6 °F - 3.7 °F 10% 30.18 in 10.0 mi SE 9.2 mph - N/A   Clear
2:35 PM 61.2 °F - 3.4 °F 10% 30.16 in 10.0 mi SE 5.8 mph - N/A   Clear
2:55 PM 64.0 °F - 4.3 °F 9% 30.15 in 10.0 mi SSE 11.5 mph 20.7 mph N/A   Clear
3:15 PM 64.2 °F - 1.8 °F 8% 30.13 in 10.0 mi SE 11.5 mph 17.3 mph N/A   Clear
3:35 PM 64.6 °F - 1.2 °F 8% 30.12 in 10.0 mi SE 9.2 mph - N/A   Clear
3:55 PM 66.0 °F - 0.7 °F 7% 30.10 in 10.0 mi SE 11.5 mph 23.0 mph N/A   Clear
4:15 PM 66.0 °F - 0.7 °F 7% 30.08 in 10.0 mi SSE 12.7 mph 19.6 mph N/A   Clear
4:35 PM 66.6 °F - -1.7 °F 7% 30.07 in 10.0 mi SSE 11.5 mph 35.7 mph N/A   Clear
4:55 PM 67.3 °F - -1.7 °F 6% 30.06 in 10.0 mi SSE 13.8 mph 21.9 mph N/A   Clear
5:15 PM 66.4 °F - -1.8 °F 7% 30.05 in 10.0 mi SSE 15.0 mph 24.2 mph N/A   Clear
5:35 PM 66.2 °F - -1.1 °F 7% 30.04 in 10.0 mi SE 18.4 mph 24.2 mph N/A   Clear
5:55 PM 66.2 °F - -2.6 °F 6% 30.04 in 10.0 mi South 13.8 mph 23.0 mph N/A   Clear
6:15 PM 66.2 °F - -3.8 °F 6% 30.03 in 10.0 mi South 18.4 mph 24.2 mph N/A   Clear
6:35 PM 65.5 °F - -3.5 °F 6% 30.02 in 10.0 mi South 13.8 mph 19.6 mph N/A   Clear
6:55 PM 65.1 °F - -3.3 °F 6% 30.02 in 10.0 mi South 11.5 mph - N/A   Clear
7:15 PM 63.7 °F - -4.0 °F 7% 30.02 in 10.0 mi South 15.0 mph 21.9 mph N/A   Clear
7:35 PM 61.9 °F - -4.5 °F 7% 30.02 in 10.0 mi SSW 13.8 mph 19.6 mph N/A   Clear
7:55 PM 60.8 °F - -5.1 °F 7% 30.02 in 10.0 mi South 8.1 mph - N/A   Clear
8:15 PM 59.0 °F - -5.8 °F 7% 30.02 in 10.0 mi South 10.4 mph - N/A   Clear
8:35 PM 58.3 °F - -6.7 °F 7% 30.03 in 10.0 mi South 9.2 mph - N/A   Clear
8:55 PM 56.7 °F - -6.9 °F 7% 30.03 in 10.0 mi SSW 9.2 mph - N/A   Clear
9:15 PM 55.0 °F - -7.4 °F 8% 30.04 in 10.0 mi SSW 9.2 mph - N/A   Clear
9:35 PM 54.5 °F - -7.4 °F 8% 30.04 in 10.0 mi SW 10.4 mph - N/A   Clear
9:55 PM 54.0 °F - -6.7 °F 8% 30.04 in 10.0 mi SW 9.2 mph - N/A   Clear
10:15 PM 51.6 °F - -4.0 °F 10% 30.04 in 10.0 mi SSE 8.1 mph - N/A   Clear
10:35 PM 51.4 °F - -5.3 °F 10% 30.04 in 10.0 mi SSE 9.2 mph - N/A   Clear
10:55 PM 48.4 °F - -4.5 °F 11% 30.03 in 10.0 mi SSE 9.2 mph - N/A   Clear
11:15 PM 47.3 °F - -5.8 °F 11% 30.03 in 10.0 mi SSE 5.8 mph - N/A   Clear
11:35 PM 45.7 °F 42.0 °F -5.3 °F 12% 30.03 in 10.0 mi South 6.9 mph - N/A   Clear
11:55 PM 46.6 °F - -5.8 °F 11% 30.03 in 10.0 mi South 5.8 mph - N/A   Clear